Il Post

 
 

Meteo Giornale » Osservazioni meteo Austria » Salisburgo

ore: 08:20 - Osservazioni Meteo Salisburgo
Lat. 47° 48' N Lon. 13° 0' E Alt. 430 metri s.l.m.

molto_nuvoloso Europe/Vienna

19 °C

Molto Nuvoloso

Temp. 24 Ore

16 °C

26 °C

Nord

1.8 Km/h

Dew point 16 °C

Umidità 82 %

Visibilità  10 Km

Il sole sorge alle ore 05:39

Il sole tramonta alle ore 20:49

Data e Ora Cielo e Fenomeni T °C DP °C Um. % Pres. hPa Vis. km Vento km/h
Oggi h: 08:20 molto_nuvoloso Molto Nuvoloso 19 16 82 1009 10 N 1.8
Oggi h: 07:50 molto_nuvoloso Molto Nuvoloso 18 17 93 1009 10 NO 7.4
Oggi h: 07:20 molto_nuvoloso Molto Nuvoloso 18 16 88 1009 10 NO 13
Oggi h: 06:50 molto_nuvoloso Molto Nuvoloso 18 17 93 1009 10 N 3.7
Oggi h: 06:20 molto_nuvoloso Molto Nuvoloso 18 17 93 1009 10 N 5.5
Oggi h: 05:50 coperto_pioggia Pioggia Debole 17 16 93 1008 10 N 5.5
Oggi h: 05:20 molto_nuvoloso Molto Nuvoloso 17 16 93 1008 8 N 3.7
Oggi h: 04:50 molto_nuvoloso Molto Nuvoloso 17 16 93 1008 8 S/SE 7.4
Oggi h: 04:20 molto_nuvoloso Molto Nuvoloso 17 16 93 1008 8 N 1.8
Oggi h: 03:50 molto_nuvoloso Molto Nuvoloso 17 16 93 1009 8 N/NO 7.4
Oggi h: 03:20 sereno Sereno 16 15 93 1008 10 NO 7.4
Oggi h: 02:50 sereno Sereno 17 15 88 1008 10 N 5.5
Oggi h: 02:20 sereno Sereno 16 15 93 1008 10 N 3.7
Oggi h: 01:50 sereno Sereno 17 16 93 1008 10 N 5.5
Oggi h: 01:20 sereno Sereno 17 16 93 1008 10 N 5.5
Oggi h: 00:50 sereno Sereno 18 16 88 1008 10 N 3.7
Oggi h: 00:20 sereno Sereno 18 16 88 1008 10 N 5.5
Ieri h: 23:50 sereno Sereno 18 16 88 1008 10 N 3.7
Ieri h: 23:20 sereno Sereno 19 16 82 1009 10 N 3.7
Ieri h: 22:50 sereno Sereno 20 16 77 1009 10 O/NO 9.3
Ieri h: 22:20 sereno Sereno 20 16 77 1009 10 NO 9.3
Ieri h: 21:50 nuvoloso Nuvoloso 20 16 77 1009 10 N 9.3
Ieri h: 21:20 nuvoloso Nuvoloso 22 16 68 1009 10 N/NE 11.1
Ieri h: 20:50 nuvoloso Nuvoloso 23 16 64 1009 10 N/NE 14.8
Ieri h: 20:20 nuvoloso Nuvoloso 24 17 64 1009 10 NE 13
Ieri h: 19:50 nuvoloso Nuvoloso 25 17 61 1009 10 N/NE 14.8
Ieri h: 19:20 molto_nuvoloso Molto Nuvoloso 25 16 57 1008 10 E/NE 13
Ieri h: 18:50 molto_nuvoloso Molto Nuvoloso 25 17 61 1008 10 E/NE 11.1
Ieri h: 18:20 nuvoloso Nuvoloso 25 18 65 1009 10 E/NE 14.8
Ieri h: 17:50 nuvoloso Nuvoloso 26 17 57 1009 10 NE 16.7
Ieri h: 17:20 nuvoloso Nuvoloso 26 17 57 1009 10 N/NE 16.7
Ieri h: 16:50 molto_nuvoloso Molto Nuvoloso 25 16 57 1009 10 NE 14.8
Ieri h: 16:20 molto_nuvoloso Molto Nuvoloso 25 17 61 1010 10 N/NE 14.8
Ieri h: 15:50 molto_nuvoloso Molto Nuvoloso 26 17 57 1010 10 N/NE 9.3
Ieri h: 15:20 molto_nuvoloso Molto Nuvoloso 26 17 57 1010 10 N 11.1
Ieri h: 14:50 molto_nuvoloso Molto Nuvoloso 25 16 57 1011 10 N 7.4
Ieri h: 14:20 molto_nuvoloso Molto Nuvoloso 25 16 57 1011 10 N 7.4
Ieri h: 13:50 molto_nuvoloso Molto Nuvoloso 25 16 57 1012 10 N 5.5
Ieri h: 13:20 molto_nuvoloso Molto Nuvoloso 24 15 57 1012 10 N 5.5
Ieri h: 12:50 molto_nuvoloso Molto Nuvoloso 23 16 64 1013 10 N 5.5
Ieri h: 12:20 molto_nuvoloso Molto Nuvoloso 22 17 73 1013 10 S/SE 11.1
Ieri h: 11:50 molto_nuvoloso Molto Nuvoloso 21 17 77 1013 10 SE 7.4
Ieri h: 11:20 molto_nuvoloso Molto Nuvoloso 20 17 82 1013 10 SE 9.3
Ieri h: 10:50 molto_nuvoloso Molto Nuvoloso 20 17 82 1014 10 S/SE 7.4
Ieri h: 10:20 molto_nuvoloso Molto Nuvoloso 20 17 82 1014 10 N 3.7
Ieri h: 09:50 molto_nuvoloso Molto Nuvoloso 20 17 82 1014 10 N 5.5
Ieri h: 09:20 molto_nuvoloso Molto Nuvoloso 19 18 93 1014 10 SE 7.4
Ieri h: 08:50 molto_nuvoloso Molto Nuvoloso 19 17 88 1014 10 N 5.5